Theta_e
324 318 326 315 298 296 290 295 300 301 299 303 304 300 300 301 306 303 328 336 339 341 345 346 349 350 350 349 348 347 348 348 348 347 347 346 344 344 342 340 338 337 337 336 337 337 337 335 334
319 320 319 308 294 287 289 297 299 302 304 304 305 306 307 304 320 326 330 337 340 342 344 346 345 349 349 348 347 347 347 347 347 347 346 346 345 343 341 339 338 336 336 336 336 337 335 334 333
315 323 307 305 294 292 290 296 301 304 304 302 303 314 307 310 319 328 332 339 341 342 344 345 345 348 348 347 346 346 346 346 347 347 346 346 344 344 342 340 337 335 334 334 335 335 334 333 333
309 312 308 299 296 295 297 299 301 301 304 304 303 305 320 325 324 330 338 341 341 342 343 342 345 348 347 346 345 345 345 345 346 347 348 346 344 344 343 341 336 334 333 333 334 334 332 332 332
309 306 299 298 297 296 299 302 303 302 302 304 304 303 314 325 331 336 338 338 338 341 342 343 344 346 346 345 345 345 345 346 347 347 346 345 343 342 341 340 338 337 334 333 332 332 331 330 329
303 305 297 295 296 297 301 304 303 303 304 304 304 307 315 327 332 336 338 338 339 339 340 342 338 340 343 343 344 344 345 344 345 345 344 343 343 341 340 339 338 337 334 334 331 330 328 327 327
303 300 294 296 296 296 300 305 302 302 303 304 309 305 315 327 331 337 337 338 338 340 340 341 341 338 335 338 340 343 343 342 342 342 342 341 339 339 339 338 336 338 334 333 330 328 326 324 324
303 301 292 295 293 294 299 302 304 304 303 308 312 306 309 319 331 334 336 336 337 338 340 339 340 338 337 338 334 335 338 339 339 338 336 334 334 334 333 331 335 336 333 330 328 326 325 325 325
302 293 289 292 295 296 299 299 303 306 306 307 313 314 320 328 330 329 331 333 334 335 337 337 337 337 337 334 330 331 333 333 333 332 329 328 329 328 327 327 331 333 332 329 326 325 325 323 323
293 288 288 294 297 295 298 298 300 302 302 303 309 318 325 329 327 326 328 329 330 331 334 335 335 335 336 335 332 334 334 335 333 330 327 324 322 322 326 324 327 329 328 328 326 324 322 317 314
290 287 291 293 296 297 296 298 300 300 299 302 304 307 322 327 327 325 327 328 329 330 332 334 334 335 335 334 334 333 332 329 328 324 323 321 320 320 321 320 320 319 318 317 317 315 313 313 314
286 290 292 293 294 294 293 296 295 298 299 305 306 310 315 326 327 325 326 327 327 328 330 331 332 332 332 334 333 330 330 328 325 322 321 320 318 317 317 317 316 315 314 313 312 313 314 313 315
286 289 292 292 293 292 294 292 292 293 299 303 306 310 311 316 325 327 326 328 328 327 329 329 330 331 331 332 332 329 327 326 326 321 320 320 318 317 317 316 314 314 313 313 313 315 315 313 314
288 288 288 290 290 292 289 290 293 292 300 300 305 309 310 313 316 325 325 327 328 328 327 328 328 330 332 331 331 327 325 325 324 321 320 320 319 318 317 315 314 313 313 314 315 315 315 314 315
288 284 286 287 287 287 290 286 288 292 298 298 302 306 310 311 317 321 326 327 328 328 327 327 328 329 330 331 330 327 324 323 322 321 319 320 320 318 317 316 314 313 314 315 315 314 314 314 316
282 282 276 283 285 287 290 279 287 293 295 296 299 305 309 309 314 320 326 328 328 328 326 329 330 329 329 329 329 327 324 323 321 321 321 321 320 319 317 317 316 316 314 315 315 315 315 316 318
279 272 275 279 286 285 285 278 285 290 291 292 297 303 309 308 313 319 323 328 328 328 327 328 330 329 329 329 329 326 325 322 322 322 321 320 320 320 319 318 318 318 317 316 317 317 320 319 317
268 274 275 275 280 284 282 283 286 291 292 294 295 302 307 310 312 315 319 327 328 328 329 329 329 329 329 329 328 326 324 322 321 322 322 321 321 320 320 319 319 319 317 316 318 321 321 321 316
276 276 274 277 281 280 281 281 285 289 292 294 298 302 305 309 309 311 314 318 326 327 327 328 329 329 329 328 325 324 322 321 321 321 322 322 321 321 320 319 319 319 319 319 320 321 320 320 318
278 274 272 278 281 280 278 278 282 288 288 290 295 302 303 305 306 306 307 310 322 324 325 326 328 329 329 328 328 327 325 324 323 322 322 323 322 322 322 321 320 320 320 320 322 321 319 319 319
278 276 275 275 280 280 278 277 281 285 291 292 295 303 305 304 302 301 302 302 310 310 313 324 326 329 329 329 329 328 328 325 324 323 322 323 323 323 323 322 322 323 323 322 322 322 319 317 318
276 281 280 278 274 267 279 268 278 283 288 293 299 303 301 300 300 299 299 301 302 305 307 310 315 316 326 329 327 326 325 323 324 324 324 323 324 324 324 325 326 325 324 323 323 323 321 319 316
279 283 280 279 276 272 273 273 276 285 286 291 298 297 296 295 295 294 296 296 298 302 305 305 312 310 309 311 327 326 326 327 326 325 324 325 325 326 326 327 327 326 326 325 323 321 321 320 319
285 282 280 279 276 269 273 275 275 286 287 293 294 293 292 292 293 294 295 296 296 297 300 303 304 302 302 304 305 325 325 324 324 324 324 325 326 326 326 327 327 327 326 325 324 323 321 321 320
283 278 270 268 269 268 279 275 279 283 287 292 290 290 291 291 291 291 292 293 294 294 296 299 299 298 300 300 300 307 323 322 322 323 323 323 323 321 325 326 324 325 323 322 322 322 320 318 319
280 278 274 262 266 272 280 276 276 284 286 290 289 289 289 289 290 289 290 291 292 293 294 295 295 296 297 297 297 297 301 308 307 311 313 310 309 309 311 313 314 312 312 311 311 309 307 307 307
282 277 283 277 278 275 276 279 283 285 284 285 285 285 285 286 288 288 289 290 290 292 292 294 294 294 295 296 295 295 296 297 298 300 301 302 304 305 304 305 306 306 305 304 304 302 301 301 300
286 286 278 279 272 270 275 276 275 280 281 283 283 283 285 286 287 287 288 289 290 291 292 293 293 293 293 294 295 294 294 295 295 296 296 296 298 300 300 300 299 299 299 300 299 297 297 295 294
283 282 282 282 279 273 271 273 282 283 284 283 284 284 285 286 286 287 288 289 290 291 291 291 291 291 291 292 292 292 293 293 294 293 293 294 294 295 295 296 295 295 295 295 294 293 292 291 290
286 280 282 278 274 275 276 273 283 283 285 285 285 285 286 286 286 287 288 289 289 289 290 290 290 290 291 291 291 291 291 291 290 290 291 292 291 292 292 293 292 292 292 292 291 290 289 288 287
Wind_Speed
9 7 2 5 3 4 4 6 2 3 2 1 3 5 5 3 5 6 2 5 13 16 13 14 17 19 19 18 16 15 14 17 17 18 18 19 19 17 19 16 14 13 14 15 14 16 16 14 12
5 4 3 2 4 3 6 4 8 8 3 6 5 1 1 8 2 1 7 6 15 15 13 13 16 18 18 18 16 15 15 15 16 17 17 18 19 18 18 18 14 14 14 15 15 16 15 13 10
6 2 2 3 5 14 6 4 10 3 4 2 3 2 3 4 0 7 3 12 16 15 13 13 16 18 17 18 16 14 14 14 14 16 18 18 18 18 18 18 16 15 14 14 15 15 13 12 11
4 4 3 4 15 4 8 5 4 0 3 1 2 8 5 1 2 4 9 15 16 15 12 15 17 19 18 17 16 15 14 14 15 15 18 19 18 18 17 17 15 15 15 14 14 13 12 13 12
3 2 4 7 18 4 2 3 4 4 1 3 4 7 5 2 2 7 11 15 19 15 12 15 18 18 18 16 16 15 14 14 14 16 17 17 19 18 16 16 15 15 15 14 13 12 11 11 12
2 1 10 18 20 4 5 3 2 3 3 3 3 3 5 1 4 9 9 10 14 14 12 12 16 16 16 16 15 15 13 13 13 17 19 19 18 17 16 15 14 16 14 13 12 11 9 10 10
3 3 17 18 18 12 5 6 5 4 3 4 4 4 4 3 4 8 9 8 10 11 12 10 12 12 14 12 11 11 13 13 15 18 20 18 17 16 15 13 13 16 15 12 11 10 9 9 8
3 3 10 15 16 18 2 3 2 6 6 2 6 5 6 2 5 7 9 8 9 10 11 12 11 9 9 8 11 10 13 13 14 14 14 14 13 13 12 10 12 14 13 11 10 9 8 8 8
3 6 14 22 19 11 3 2 2 2 5 3 2 2 5 6 12 6 9 8 10 10 11 11 11 10 9 7 7 11 13 13 13 12 12 10 6 7 9 9 12 11 10 10 9 8 8 6 6
3 6 14 4 4 5 8 8 9 7 6 6 4 3 2 11 13 15 14 14 16 15 14 12 12 13 10 7 7 7 8 7 7 7 7 5 6 6 7 8 12 10 9 8 7 7 6 4 2
4 14 7 14 11 9 11 12 7 9 14 3 4 3 5 8 11 15 13 12 16 15 12 14 13 12 14 9 6 5 4 4 5 7 6 6 5 4 4 4 4 4 6 2 3 4 2 3 2
6 4 2 3 8 9 12 12 11 12 7 12 15 5 3 9 10 10 12 14 13 15 14 13 13 13 14 9 7 6 6 6 5 6 6 6 4 4 4 3 4 4 3 4 3 1 2 2 2
9 7 5 5 8 8 11 16 16 25 13 18 14 11 7 6 8 10 10 10 12 13 12 14 12 13 13 13 7 6 7 6 7 6 6 5 5 5 4 4 4 4 4 4 3 2 2 1 1
3 4 8 5 6 7 11 16 13 15 2 8 11 14 8 7 9 9 10 13 13 13 13 14 14 14 13 12 11 7 6 6 7 6 6 6 5 6 5 4 4 4 3 3 3 3 3 2 2
4 8 10 10 5 8 8 17 33 5 9 17 14 13 9 6 4 10 14 15 16 14 13 13 14 14 13 13 11 8 6 6 6 6 7 6 5 6 6 5 4 4 4 4 2 2 2 2 2
4 3 6 5 10 9 8 24 19 6 8 14 14 13 11 8 7 7 8 14 12 13 15 15 12 13 14 12 10 8 7 7 6 6 6 7 6 6 5 5 5 5 4 4 4 3 3 3 3
8 14 10 8 8 6 16 16 10 14 15 13 9 13 11 6 7 3 6 11 15 14 15 15 14 14 14 12 10 9 10 7 7 6 6 7 7 6 5 5 4 5 4 4 4 4 3 3 2
9 10 9 13 6 12 15 18 12 15 9 9 12 14 12 5 2 5 6 8 14 15 17 17 13 15 13 9 8 6 7 6 6 7 7 8 7 8 6 4 5 6 4 4 4 4 4 3 3
2 11 13 14 14 9 9 18 16 15 13 11 7 10 10 6 1 2 5 5 14 15 13 18 15 14 12 10 9 8 8 7 6 6 8 9 8 8 8 5 5 6 6 5 5 3 4 4 3
17 9 16 11 11 9 13 20 18 15 18 18 13 10 7 5 4 4 8 9 9 14 15 15 14 15 11 10 10 7 8 6 7 7 8 9 10 10 9 7 6 7 5 6 6 5 3 2 4
21 22 17 12 1 14 14 15 13 14 15 13 17 14 6 7 5 4 7 8 7 6 3 13 15 14 13 13 9 6 7 4 4 7 7 9 10 10 11 8 7 8 7 7 7 7 7 4 3
21 25 18 15 4 6 8 10 11 16 16 14 13 11 9 7 6 5 9 6 5 6 3 4 8 5 3 12 12 15 12 8 9 9 7 8 10 11 10 9 9 8 6 6 7 5 4 4 4
14 11 17 17 9 2 15 10 11 14 16 15 10 10 7 6 7 8 8 3 5 5 3 3 6 4 4 9 8 11 13 9 6 6 10 9 9 10 10 10 10 9 6 4 4 4 5 4 3
5 3 10 5 3 8 20 12 8 9 12 14 8 10 9 7 9 9 8 6 7 7 6 2 10 8 8 6 9 15 13 11 7 8 7 6 5 7 9 9 9 8 7 7 5 5 5 5 4
8 4 4 6 8 10 4 14 13 9 13 13 15 12 8 8 9 9 9 8 8 11 10 8 8 7 4 8 10 10 10 6 7 7 6 5 3 2 8 9 6 6 5 5 5 5 4 3 3
18 11 5 9 6 5 5 5 1 4 9 16 13 13 10 9 10 9 12 7 6 8 9 9 10 7 7 10 10 11 14 5 5 3 3 4 3 3 5 2 6 7 6 5 5 5 4 4 4
9 12 16 11 3 5 4 3 5 5 9 13 13 13 11 10 10 11 8 4 9 7 9 9 8 7 9 11 11 13 10 9 8 7 8 5 5 4 7 6 4 8 6 8 7 5 4 6 5
4 5 5 4 4 4 3 6 5 3 6 8 12 12 10 12 8 8 6 11 9 9 8 9 9 9 11 11 10 10 10 11 9 10 11 10 8 9 7 9 7 9 8 8 8 6 7 8 6
2 0 1 0 1 3 4 4 8 5 4 8 9 13 10 8 9 8 8 9 6 10 10 9 11 10 12 9 10 9 10 12 9 10 6 8 9 7 9 8 5 10 9 7 8 9 9 10 9
3 7 3 2 1 3 4 4 9 8 6 7 9 10 9 11 9 9 8 6 9 11 11 11 11 10 9 9 9 11 9 7 9 8 10 8 10 9 8 6 9 10 9 8 10 9 8 8 8
Wind_Direction
331 314 356 37 57 73 225 235 239 256 243 279 128 141 189 179 202 214 349 138 136 146 151 151 155 146 143 140 142 145 142 140 143 140 143 139 136 130 120 116 116 114 115 112 115 109 105 95 89
322 316 45 96 135 195 238 222 236 235 273 359 337 17 139 261 175 171 144 168 143 145 147 150 148 146 143 141 146 150 148 149 147 146 147 147 138 130 124 120 117 116 115 116 121 111 102 95 93
316 10 81 192 195 224 200 206 235 288 294 285 283 254 207 231 344 183 236 154 147 146 148 148 148 148 146 146 148 156 155 156 156 151 151 150 139 134 128 123 122 119 119 122 124 114 104 95 102
4 8 359 227 236 274 187 204 204 228 353 80 350 298 293 314 181 211 152 153 149 148 146 147 151 149 150 149 152 159 158 162 165 160 155 151 142 131 129 126 129 127 123 123 124 122 110 105 102
20 92 230 233 237 239 255 259 277 230 195 275 3 277 272 12 213 131 157 163 159 152 147 153 152 151 150 152 156 160 160 170 173 165 153 143 137 131 130 130 129 128 131 126 126 123 116 107 100
300 112 237 236 236 244 218 229 304 255 216 302 295 291 261 319 136 146 151 169 161 153 150 155 148 149 149 156 161 161 157 145 148 148 141 138 135 130 133 137 137 132 129 126 127 124 115 103 98
256 227 240 259 248 248 203 171 212 250 233 247 224 239 275 208 181 154 150 160 160 156 149 152 150 147 144 154 153 156 147 141 136 140 137 132 130 130 126 131 145 136 135 133 129 118 110 104 101
312 277 247 239 242 258 190 203 175 210 257 213 158 233 258 277 150 143 140 142 152 164 154 159 146 148 144 154 150 146 136 136 137 133 131 130 130 129 124 119 117 123 132 133 126 117 107 100 96
342 257 245 237 240 247 313 301 293 243 257 166 207 228 285 144 137 150 151 151 164 163 165 164 153 148 148 138 149 141 138 136 133 130 125 118 129 122 124 131 126 133 131 134 129 118 107 96 82
211 242 255 302 323 14 351 11 319 290 284 265 200 245 348 161 169 166 178 173 173 167 168 170 158 156 155 147 146 139 137 144 139 137 133 121 128 127 135 134 128 129 127 131 132 127 107 84 78
225 245 293 295 319 360 332 322 330 312 260 238 234 247 234 190 188 194 182 196 184 169 168 172 162 154 167 153 148 146 140 133 132 134 135 131 126 121 126 120 117 122 115 104 99 95 96 102 102
267 265 275 319 302 314 299 306 289 272 264 316 319 186 228 188 199 196 188 187 184 178 173 172 170 167 173 163 162 149 150 148 146 147 141 137 133 134 137 133 141 138 140 140 141 138 150 134 151
253 281 299 300 295 296 290 269 267 274 282 285 279 270 245 232 213 212 224 192 170 184 181 170 172 175 172 168 153 158 156 157 155 150 148 146 146 151 142 144 143 148 149 159 163 161 165 181 189
265 300 280 273 274 278 278 279 265 248 286 307 310 275 250 217 221 220 201 195 192 177 180 173 176 184 170 164 161 156 160 150 157 156 160 158 158 156 155 149 160 165 172 168 170 183 190 196 191
256 278 277 258 235 251 278 269 246 193 241 277 284 279 283 278 212 211 212 192 185 185 182 177 176 186 175 164 165 164 164 157 162 164 159 163 164 163 161 161 166 176 174 170 175 195 193 193 211
305 254 243 214 203 219 229 256 283 214 222 247 266 260 263 278 295 218 213 190 183 174 181 174 178 182 178 166 172 166 162 165 163 171 169 169 172 171 163 169 177 168 167 172 177 180 201 205 192
198 251 245 264 214 208 207 260 252 261 255 263 258 258 256 273 309 351 219 181 175 175 175 174 182 182 181 170 174 166 163 168 173 174 177 178 175 180 172 179 179 168 172 181 175 197 185 186 194
203 223 243 237 236 224 230 246 256 274 257 260 251 243 239 233 32 345 319 202 177 177 179 180 179 177 178 171 160 164 165 176 172 181 188 179 184 179 182 190 183 178 178 186 187 181 191 187 188
218 211 229 235 237 252 256 252 247 246 254 252 242 236 229 183 176 352 340 302 174 180 180 185 178 177 175 168 173 176 177 180 181 184 188 181 182 183 188 196 191 187 190 188 185 171 181 207 166
232 226 235 263 244 204 246 255 255 240 244 244 247 232 219 157 166 67 5 344 196 177 183 185 185 184 191 176 182 184 178 195 187 183 185 188 185 186 193 193 184 182 182 192 185 175 167 193 175
217 222 226 224 70 223 249 269 261 252 240 240 229 231 179 169 160 103 50 345 335 73 70 187 185 203 195 189 179 176 169 136 172 193 194 196 188 191 197 188 178 184 192 196 190 192 180 178 182
225 211 220 228 215 237 185 272 238 233 227 212 221 196 157 135 104 81 75 5 5 6 360 71 105 95 212 198 183 183 187 187 198 197 193 190 191 198 197 186 182 186 190 189 203 191 176 137 173
245 217 213 216 216 329 261 269 246 209 200 190 163 119 118 100 101 77 56 4 357 331 350 18 114 76 60 28 214 196 187 186 179 189 187 188 193 199 195 190 186 184 172 172 183 177 182 183 162
195 199 192 187 185 243 244 220 234 193 198 168 133 123 120 111 85 77 57 44 359 3 347 12 71 61 39 52 8 200 195 172 163 174 182 185 192 196 194 190 190 181 173 173 170 201 195 183 176
190 166 154 188 198 237 211 187 248 330 311 146 137 117 105 94 89 76 60 39 13 30 8 26 41 54 58 57 47 340 164 163 168 168 181 149 171 230 204 187 186 191 173 142 152 157 165 169 182
188 170 220 200 178 199 153 221 316 34 34 100 102 100 100 88 83 67 57 38 36 38 30 35 43 24 33 72 48 25 6 95 65 55 114 103 97 97 28 101 116 91 110 100 106 103 103 95 93
160 207 237 302 236 107 125 145 119 71 68 85 96 97 92 79 77 71 63 47 42 29 48 45 53 40 39 43 62 53 22 44 64 54 55 45 90 80 67 33 75 95 85 89 75 75 78 88 79
230 136 167 181 242 117 128 74 41 72 78 99 97 94 85 74 82 81 70 50 39 38 37 44 53 46 51 46 54 63 45 36 40 55 54 51 20 65 62 69 45 58 55 67 90 86 64 81 60
343 189 241 331 313 134 119 56 359 69 105 105 100 94 97 114 87 74 59 60 42 54 40 36 37 46 50 43 57 48 62 40 37 57 68 71 54 38 62 59 65 80 63 59 78 83 76 85 78
327 352 294 284 95 43 85 58 356 23 104 104 97 97 79 74 79 70 59 65 49 53 39 30 34 30 44 45 56 60 59 72 70 43 65 67 70 55 67 76 68 66 86 67 82 75 70 78 79